Tracking 35274 objects as of 11-Sep-2026
HD Live streaming from Space Station
objects crossing your sky now

STARLINK-31750

Track STARLINK-31750 now!
10-day predictions
STARLINK-31750 is classified as:


NORAD ID: 59552
Int'l Code: 2024-074U
Launch date: April 18, 2024
Source: United States (US)
Launch site: AIR FORCE EASTERN TEST RANGE (AFETR)
Your satellite tracking list
Your tracking list is empty




NASA's NSSDC Master Catalog

Two Line Element Set (TLE):
1 59552U 24074U   26254.38481224 -.00000458  00000-0 -71308-5 0  9997
2 59552  43.0058  14.8445 0001226 276.0558  84.0154 15.27572909134410
Source of the keplerian elements: AFSPC